Wind_Speed
19 17 14 14 13 11 9 9 12 16 19 20 19 18 17 17 17 18 18 19 19 19 19 19 19 20 20 21 22 23 23 24 25 25 25 25 24 23 23 23 22 22 22 22 21 21 22 22 21 20 21 21 21 21 21 20 20 20 20 20 21 22 22
18 18 15 13 13 14 15 14 12 14 17 19 20 19 18 17 17 18 19 19 19 19 19 19 19 19 19 19 20 20 21 22 23 23 23 23 23 23 23 24 23 22 22 22 22 22 22 23 23 22 21 21 22 22 22 22 21 20 20 20 20 20 20
16 16 15 14 15 18 20 18 12 11 14 17 18 19 18 18 17 18 19 19 20 20 20 19 19 19 19 19 19 19 20 21 22 22 22 22 22 22 23 24 24 24 24 23 24 24 23 24 24 24 24 22 22 23 23 23 23 23 22 22 22 20 18
14 14 15 15 17 19 19 16 11 11 13 16 17 18 18 17 17 18 18 19 20 20 20 20 19 19 19 19 19 19 19 20 20 21 21 21 22 21 22 22 23 24 24 25 25 25 24 25 25 25 25 24 24 24 24 24 24 24 24 24 24 23 22
15 15 16 17 17 17 17 16 14 13 14 15 16 18 18 17 16 17 17 18 18 18 19 19 18 18 18 19 18 18 18 19 19 20 20 20 21 21 21 21 22 23 24 25 25 24 23 24 25 25 25 26 27 27 26 25 25 24 23 23 23 24 25
17 18 19 19 19 19 19 19 16 14 14 15 16 17 17 16 15 16 16 17 17 16 16 16 16 17 17 17 18 18 18 19 19 18 18 18 18 19 19 19 20 21 23 24 24 24 24 24 24 25 26 27 27 27 26 27 27 27 26 25 25 26 26
19 19 19 20 21 20 19 19 16 15 15 15 15 16 16 15 14 14 15 15 16 15 15 15 15 15 15 16 16 17 17 18 18 18 18 17 17 16 16 17 18 19 21 22 23 24 25 25 25 26 27 27 27 26 25 26 28 29 30 29 29 30 30
20 18 18 20 22 20 18 17 16 15 15 15 15 16 16 15 14 14 14 14 14 14 14 14 14 14 15 15 15 15 16 16 17 17 17 17 17 16 16 15 16 17 18 20 21 22 23 24 25 26 27 28 29 29 28 28 28 29 30 31 31 31 32
21 20 20 21 22 19 16 17 17 15 14 14 14 15 15 15 15 14 14 14 14 14 14 14 14 15 15 15 15 15 15 15 15 16 16 16 16 15 15 15 15 16 16 17 18 20 21 22 23 24 24 26 27 28 28 28 28 28 29 30 30 30 31
21 21 22 21 20 17 16 20 20 16 14 14 14 14 15 15 15 15 15 14 14 14 14 14 15 15 15 16 16 16 16 16 16 15 15 15 15 14 14 14 14 14 15 16 16 17 18 19 20 21 21 22 23 24 25 25 25 26 26 27 28 29 29
14 15 16 16 16 15 17 22 20 15 14 14 14 15 15 16 15 15 15 15 15 15 15 15 15 15 15 16 16 17 17 17 17 16 16 16 15 15 14 14 14 13 14 14 15 16 16 17 18 19 19 19 20 20 20 21 21 22 23 23 24 25 26
11 11 12 12 13 14 16 19 18 16 16 15 15 15 14 14 15 15 15 15 15 15 15 14 14 14 15 15 16 16 16 16 16 16 16 16 15 15 15 14 14 14 14 14 14 15 15 16 17 18 18 18 18 18 18 18 18 18 19 20 20 21 22
11 11 10 11 12 12 14 17 18 18 17 17 17 16 13 13 13 14 14 14 15 15 15 14 13 13 13 14 14 14 14 13 13 13 13 13 14 14 14 14 14 14 14 15 15 15 16 16 17 17 17 18 18 18 17 17 16 16 16 17 17 18 18
10 10 11 12 12 12 14 17 19 19 17 17 17 16 14 13 14 14 14 14 14 14 14 14 13 13 12 12 13 12 12 12 11 11 11 12 13 14 14 14 14 14 14 14 15 16 16 17 18 18 18 18 18 18 18 18 17 16 16 17 17 17 17
12 12 13 14 15 16 16 18 20 20 18 16 16 16 17 17 17 16 16 14 13 13 13 13 13 12 12 12 12 13 13 12 12 11 11 11 12 13 14 15 16 16 15 15 15 15 16 17 18 18 19 19 19 19 19 19 19 18 18 18 18 18 18
14 15 15 14 15 17 17 18 21 21 19 18 17 18 20 20 20 19 18 16 14 13 13 14 14 14 14 13 14 14 15 14 14 13 13 13 13 13 13 14 15 16 17 17 17 17 17 18 18 19 20 20 20 21 21 21 21 20 20 19 20 20 20
16 17 16 15 15 16 17 18 20 21 20 19 19 20 21 21 20 19 19 18 17 17 18 18 19 19 19 18 17 17 17 17 16 16 16 16 16 16 16 16 16 17 18 18 19 19 19 19 19 19 20 21 22 22 23 23 23 23 23 22 22 22 22
16 17 17 16 17 18 19 19 19 20 20 20 19 19 20 20 20 20 20 20 21 22 23 24 23 23 23 22 20 20 20 20 19 19 19 19 19 19 19 19 19 19 19 20 21 21 21 21 21 21 21 21 22 23 24 24 24 24 25 25 24 24 25
20 19 18 17 17 19 21 22 20 17 17 18 17 18 20 20 21 22 22 22 23 22 22 22 23 23 21 19 18 19 20 20 19 19 18 19 21 21 19 19 19 20 20 21 22 22 23 23 23 23 23 23 24 24 24 25 25 25 26 26 26 26 26
25 22 19 17 16 16 17 20 20 16 16 18 20 23 24 22 21 21 22 23 23 21 20 20 21 21 20 18 17 19 20 20 20 20 19 21 23 24 22 22 22 22 22 23 24 24 24 24 25 25 25 26 26 27 27 27 27 27 27 27 27 27 27
27 24 22 20 18 17 16 17 19 20 23 25 26 26 25 23 22 23 24 25 24 24 24 25 25 24 24 23 23 23 24 24 24 24 24 25 27 27 27 26 26 27 27 28 28 28 27 27 27 27 27 28 29 30 30 30 30 30 30 30 30 30 30
29 28 26 24 22 22 22 23 25 28 29 27 27 26 24 23 24 25 25 26 27 28 29 30 30 30 30 30 29 28 29 29 29 29 29 29 30 30 28 28 29 31 31 31 32 31 31 30 30 30 30 30 31 32 33 33 34 34 34 34 34 33 33
34 32 30 29 28 28 28 28 30 32 31 28 27 26 25 25 27 27 27 27 27 29 31 31 31 32 32 32 31 31 32 32 32 32 32 31 32 31 29 28 31 33 34 35 36 36 36 35 34 34 34 33 33 33 34 35 36 37 38 38 37 37 37
38 36 35 34 34 33 33 33 31 31 31 29 28 28 29 30 31 31 31 31 30 32 33 32 32 33 33 34 35 35 33 32 31 31 31 32 32 33 32 32 33 36 37 38 40 41 41 40 40 40 39 39 39 38 38 38 38 39 40 41 41 41 41
41 40 39 39 37 37 37 37 35 34 34 33 32 32 33 35 34 34 34 34 33 33 34 34 35 36 37 37 36 33 32 31 31 31 32 32 33 33 34 35 36 37 38 40 41 42 42 43 44 44 44 44 43 43 42 42 42 42 42 43 44 44 45
43 42 41 41 40 39 39 39 38 38 38 36 35 35 35 36 36 36 35 34 34 34 34 35 36 36 36 35 33 32 32 32 33 33 33 34 34 35 36 37 38 39 40 40 41 43 43 44 45 45 45 46 46 46 46 45 45 45 45 45 47 47 48
45 44 43 43 42 41 39 38 38 38 38 38 37 37 37 37 37 36 34 34 34 35 36 36 36 36 36 35 35 35 35 35 34 35 35 36 36 37 38 39 40 41 41 42 43 44 45 46 47 46 46 46 47 47 47 48 48 47 47 48 50 51 52
43 43 43 43 42 40 39 38 39 39 39 39 39 39 38 37 37 36 36 37 37 38 38 39 39 38 38 38 38 37 37 37 37 37 37 38 39 39 40 40 41 42 43 44 44 45 46 47 48 48 48 48 48 48 49 49 49 48 48 50 52 54 55
40 39 39 39 39 40 40 40 40 40 40 40 41 40 39 39 39 39 40 41 42 41 41 41 41 41 40 40 40 39 39 39 39 40 41 42 43 42 42 41 41 42 43 44 45 46 47 47 48 48 49 49 49 50 50 50 50 49 50 51 53 55 56
37 38 38 38 40 40 41 41 41 42 43 43 43 43 42 42 43 43 43 44 44 43 43 42 42 42 42 41 41 41 41 41 43 44 46 46 46 45 44 43 42 42 43 44 45 46 47 47 48 48 49 49 50 50 50 50 50 51 51 52 53 55 56
40 40 40 41 43 44 45 46 46 46 46 46 45 44 44 45 45 45 45 44 44 43 42 42 42 42 42 42 42 42 44 45 47 48 48 48 48 47 47 46 46 45 45 45 46 46 46 47 47 48 48 49 49 50 50 49 50 50 50 51 52 54 55
42 41 41 43 44 45 46 47 47 47 46 45 44 43 43 44 44 45 45 44 44 43 43 42 42 42 43 43 43 45 47 48 49 49 48 48 47 48 48 48 48 48 47 47 47 46 46 46 47 47 47 48 48 48 48 48 48 48 49 50 51 52 54
43 42 43 44 44 44 45 46 47 46 44 43 42 42 43 43 44 44 44 43 43 44 44 44 44 44 45 45 46 47 48 48 48 48 48 48 48 48 48 48 48 48 48 47 47 47 46 46 46 46 46 47 47 47 47 47 47 48 49 50 50 51 53
47 47 48 48 48 48 48 48 49 48 47 44 41 40 43 45 45 45 46 45 45 46 47 47 47 48 48 48 49 50 50 50 50 49 49 49 48 48 48 47 47 46 46 46 46 46 47 46 46 46 46 46 46 46 47 47 47 48 49 49 50 50 51
52 52 52 51 49 48 48 48 48 49 49 47 43 41 43 46 47 47 48 48 47 47 49 50 50 50 50 51 52 53 53 53 52 51 50 49 49 48 47 46 46 45 45 45 46 46 46 46 46 46 46 46 46 47 47 47 48 48 48 49 50 50 50
57 56 56 55 52 49 47 48 48 49 49 49 47 46 47 50 51 53 53 52 51 50 51 52 53 54 55 56 56 56 55 53 52 52 51 50 49 48 47 47 46 46 46 46 46 46 46 46 46 45 46 46 46 46 47 47 47 48 48 49 49 50 51
59 59 59 59 58 56 54 53 52 52 51 51 51 52 53 55 57 58 58 57 56 56 57 58 58 59 59 59 58 56 55 53 52 51 51 50 49 48 48 47 46 46 46 47 46 46 45 45 45 45 45 45 45 46 46 47 47 48 48 49 49 50 51
Wind_Direction
279 278 271 272 279 283 284 290 296 296 290 283 278 273 266 263 260 258 254 252 249 247 247 248 250 253 255 257 258 258 259 260 261 260 261 263 266 267 267 265 262 261 260 260 260 260 259 257 256 256 257 259 261 261 260 260 259 256 255 256 257 258 259
276 271 263 264 275 284 288 288 289 294 291 282 275 271 267 261 257 254 251 248 247 245 244 243 244 247 250 252 254 256 258 258 259 261 261 263 264 265 268 269 266 264 264 263 262 261 260 258 257 258 257 256 258 261 262 261 258 254 254 256 256 253 251
276 266 257 262 277 286 289 287 286 293 294 287 277 271 267 263 258 253 248 244 242 242 241 240 240 242 244 246 249 251 254 256 258 259 260 262 263 264 268 271 271 270 269 267 264 261 260 259 258 258 258 257 257 259 260 260 258 254 251 252 254 253 250
276 266 261 269 282 287 286 283 284 293 296 291 282 273 266 263 260 255 250 244 242 241 241 239 238 239 241 243 246 250 253 255 257 259 260 261 261 262 264 268 270 271 271 269 267 265 262 261 260 259 258 258 257 257 258 259 258 256 253 251 251 253 254
275 271 270 275 282 286 285 283 284 289 292 291 285 274 266 262 261 258 253 248 244 243 244 244 243 242 242 243 245 249 253 256 259 261 263 265 266 266 266 266 267 268 269 269 269 268 267 265 264 263 262 261 259 256 256 257 256 254 254 254 253 253 253
275 273 271 276 281 284 287 287 287 287 288 289 288 278 268 263 262 260 257 253 248 246 246 248 250 250 250 249 249 250 252 254 258 261 265 268 271 272 272 271 270 269 268 269 269 268 268 267 265 264 263 263 261 258 256 255 254 255 255 256 257 256 256
274 273 268 274 280 283 284 283 284 285 285 288 291 284 272 265 263 262 261 258 254 251 249 249 251 254 256 257 257 256 256 257 258 260 263 265 269 272 274 274 273 271 270 270 271 270 269 268 265 263 262 262 262 262 261 259 257 258 259 258 258 258 259
269 271 268 273 279 281 281 278 280 281 280 286 293 289 277 267 264 262 261 260 258 256 254 253 254 255 257 260 261 262 262 263 263 264 265 265 266 268 269 270 271 271 270 270 270 271 271 270 268 266 264 263 264 266 266 266 263 261 261 261 260 259 260
262 267 269 273 275 275 274 275 280 281 278 284 292 291 281 272 266 262 261 260 259 257 256 256 257 258 260 261 263 264 265 266 267 268 269 269 269 270 269 269 269 269 269 269 269 270 270 270 270 270 268 267 267 269 270 270 268 265 263 262 262 261 261
260 266 269 268 266 263 261 265 273 277 276 283 291 290 284 277 271 266 264 263 262 261 260 259 260 260 262 263 264 266 267 268 269 269 270 271 272 272 271 270 270 270 271 271 272 272 271 271 271 272 272 271 270 271 271 271 270 268 266 264 263 263 263
263 272 271 263 257 255 256 258 265 270 271 278 287 287 284 281 278 275 271 268 264 262 261 262 263 264 265 266 266 267 268 270 272 273 274 274 274 274 274 274 274 274 274 275 277 277 277 276 275 275 275 275 274 272 272 271 271 270 269 267 265 264 265
269 280 274 262 255 255 256 256 261 269 273 278 280 279 278 280 282 281 275 268 263 260 259 259 262 266 267 267 266 266 268 269 272 275 277 278 280 281 281 281 280 279 280 280 281 282 282 280 279 278 278 278 277 276 274 273 272 272 271 271 269 267 266
281 283 277 270 262 256 255 256 262 269 274 279 276 270 269 274 280 278 270 264 261 258 257 255 256 260 263 265 266 266 265 267 269 274 278 282 284 286 288 289 289 288 286 285 285 285 285 285 284 284 283 283 282 281 279 276 275 273 272 272 272 271 269
279 276 274 276 274 267 261 260 264 268 274 279 275 266 260 270 284 281 269 262 260 258 256 254 252 253 257 260 262 261 262 264 267 272 277 283 286 288 291 292 293 293 293 291 289 287 286 285 286 286 287 286 286 285 283 280 277 274 271 270 270 270 270
273 272 275 278 279 276 268 262 260 264 270 275 272 262 261 274 286 283 274 271 267 263 260 255 251 249 250 253 253 255 259 263 265 268 272 278 283 287 291 292 293 294 294 295 294 292 289 287 285 284 284 284 284 284 283 282 279 276 272 270 268 267 267
277 276 279 281 279 273 266 259 254 257 265 271 271 267 269 277 280 274 271 272 270 267 266 265 261 256 254 253 252 255 260 264 266 268 272 277 279 281 284 288 290 290 290 291 291 291 290 290 288 286 284 283 282 281 281 280 279 277 273 270 268 267 266
278 279 281 283 280 271 263 257 251 253 261 267 270 272 273 276 276 271 268 269 270 270 269 267 266 266 265 262 259 260 263 264 265 268 273 276 276 277 279 280 281 281 282 283 284 284 284 285 286 286 286 285 283 282 281 280 279 278 276 273 271 268 266
280 280 279 279 278 270 260 254 253 257 261 260 263 273 274 274 278 278 273 272 275 275 273 269 267 267 268 266 264 265 265 264 264 267 272 274 272 273 276 277 278 278 277 277 277 279 279 279 280 281 283 283 283 282 281 280 279 279 278 276 274 272 270
288 286 282 278 276 270 259 252 256 261 259 254 259 272 276 277 281 280 274 273 275 275 273 271 268 265 264 264 267 268 266 266 265 266 271 276 275 273 273 275 277 278 278 276 275 275 275 276 277 278 279 279 280 280 279 279 278 277 276 275 274 273 272
291 291 288 281 276 274 260 247 246 250 256 264 271 275 277 276 275 273 271 271 271 269 267 266 264 260 258 260 269 273 272 269 267 266 265 267 272 274 273 273 273 274 276 276 274 272 271 271 272 274 275 276 277 277 276 276 275 274 274 273 273 273 271
287 287 286 280 270 267 259 245 243 253 266 275 278 278 276 272 269 269 267 264 263 264 266 267 264 258 256 263 272 276 275 272 270 269 266 264 267 271 273 274 274 274 273 273 272 270 268 266 265 267 269 271 273 273 273 273 272 271 270 270 270 271 270
281 282 284 281 271 263 258 256 258 263 267 271 276 276 271 266 269 272 268 264 264 267 268 268 266 260 260 267 274 275 272 270 268 268 267 266 267 270 272 275 276 276 273 272 271 270 268 266 262 262 263 265 267 269 270 270 270 269 269 269 269 269 268
279 278 278 278 274 268 265 266 269 269 267 268 271 269 260 260 268 272 270 266 266 268 269 270 268 264 263 267 274 278 274 269 266 266 267 267 268 269 270 270 269 270 270 270 271 271 270 268 265 264 264 264 265 266 267 267 267 267 267 268 268 268 267
276 276 274 273 272 269 269 270 270 268 267 267 266 261 257 262 268 269 267 265 264 266 270 272 270 268 268 271 277 280 277 272 271 271 271 271 271 271 270 267 266 266 268 269 270 270 270 269 268 267 267 266 266 266 266 265 264 264 264 265 265 266 265
272 272 272 271 268 267 268 268 267 265 265 265 263 260 261 266 268 266 264 263 263 266 269 270 269 270 272 275 276 275 275 276 278 278 278 277 277 276 275 273 271 270 270 270 270 270 270 270 269 268 267 266 266 266 265 264 262 262 261 261 261 262 263
270 270 269 268 267 266 266 266 265 264 265 265 265 266 266 266 266 265 264 263 265 269 271 272 271 271 271 271 270 270 273 277 279 279 280 280 280 280 279 278 276 274 273 272 272 271 271 270 269 269 268 268 268 267 266 265 263 262 260 260 260 260 260
269 269 268 267 267 266 264 263 264 264 266 267 268 269 269 268 266 264 265 267 269 271 272 271 270 268 267 267 268 271 274 276 277 278 279 280 281 282 281 279 277 275 274 273 273 272 272 272 272 271 271 270 270 269 269 268 266 265 263 262 262 261 260
267 267 267 267 266 265 263 264 266 267 267 268 268 268 268 268 266 263 263 266 268 269 270 269 268 268 269 270 271 274 276 277 278 279 280 282 284 284 282 279 277 275 274 273 273 273 272 273 273 273 273 272 272 271 271 270 270 269 268 267 266 265 264
266 266 266 267 267 265 264 265 267 267 267 267 268 268 267 266 264 263 263 265 268 270 271 270 269 269 271 272 273 275 278 280 282 282 283 285 286 285 283 280 277 275 273 272 272 272 272 272 272 273 273 273 273 272 272 272 272 271 270 269 269 269 269
264 264 265 266 268 267 266 266 266 266 267 267 268 268 268 268 267 267 268 269 270 271 271 270 270 271 273 274 274 276 279 282 284 285 286 287 287 286 284 281 279 276 274 273 272 272 272 272 272 272 273 273 273 273 273 273 273 272 271 270 270 270 270
266 267 266 266 266 266 266 267 267 267 268 269 270 271 271 272 272 272 272 272 272 271 270 270 271 272 274 275 276 277 280 283 285 286 286 286 285 284 284 283 281 279 277 276 274 274 273 273 273 273 273 274 274 274 275 275 275 274 274 273 272 271 271
266 268 267 266 266 266 266 266 267 267 268 268 269 270 271 272 272 272 271 270 270 269 269 269 270 271 273 274 276 278 282 284 285 285 284 283 282 282 282 281 280 280 279 278 277 276 276 275 275 275 275 275 275 276 276 277 277 277 277 276 275 274 273
260 262 262 263 264 264 264 264 264 264 265 266 267 269 271 271 270 269 268 267 266 266 267 267 268 270 272 274 276 279 282 284 284 283 282 281 280 280 280 280 279 279 279 278 278 278 277 276 276 276 276 276 277 277 278 279 279 279 278 277 277 276 275
254 254 255 257 260 261 262 264 264 263 264 265 266 269 271 271 269 268 266 265 263 263 264 265 267 269 272 275 278 282 284 284 283 282 281 280 280 279 279 279 279 279 279 279 278 278 278 277 277 277 277 278 278 279 280 280 280 280 280 280 279 278 277
252 252 252 254 256 259 260 262 263 262 262 261 260 260 262 262 262 262 261 262 263 263 265 267 269 271 274 277 281 284 285 285 283 282 281 280 280 280 280 279 279 279 279 279 278 277 277 277 278 278 279 279 280 280 281 281 282 281 281 280 280 279 279
253 253 252 252 253 255 256 257 258 258 258 258 256 254 254 255 257 258 259 261 263 265 267 270 272 274 277 280 283 285 285 284 282 281 280 280 280 280 280 279 280 280 279 278 277 277 277 277 278 278 279 280 281 281 282 282 282 281 281 280 279 279 278
256 255 253 252 252 253 253 254 255 256 257 257 256 256 256 257 259 260 261 263 265 267 270 273 275 277 279 281 282 283 281 280 279 279 278 278 279 279 279 279 279 278 278 277 277 277 277 278 278 279 280 280 281 282 282 282 281 281 280 280 279 279 279
Height
5769 5769 5769 5769 5769 5769 5769 5769 5769 5769 5769 5768 5768 5768 5768 5768 5768 5768 5768 5769 5769 5770 5770 5770 5770 5770 5771 5771 5771 5772 5772 5773 5773 5773 5773 5772 5773 5773 5774 5774 5775 5775 5776 5777 5778 5778 5779 5778 5777 5778 5778 5778 5778 5778 5779 5779 5779 5780 5780 5780 5780 5780 5780
5766 5766 5766 5767 5767 5767 5767 5767 5767 5768 5768 5767 5767 5766 5766 5766 5766 5766 5766 5767 5767 5767 5768 5768 5768 5768 5768 5768 5769 5769 5770 5770 5770 5771 5771 5771 5771 5771 5771 5771 5772 5773 5773 5774 5775 5775 5776 5776 5775 5775 5775 5776 5776 5776 5776 5777 5777 5778 5778 5778 5778 5778 5777
5764 5763 5764 5764 5764 5764 5764 5764 5765 5765 5766 5766 5765 5765 5764 5764 5764 5764 5765 5765 5765 5765 5765 5766 5766 5766 5766 5766 5766 5767 5767 5768 5768 5768 5768 5769 5769 5769 5769 5769 5770 5770 5770 5770 5771 5772 5772 5773 5773 5773 5773 5774 5774 5773 5773 5774 5775 5775 5775 5776 5775 5775 5776
5763 5762 5762 5762 5762 5762 5762 5762 5762 5763 5763 5763 5763 5763 5762 5762 5762 5762 5763 5763 5763 5763 5763 5763 5763 5763 5763 5763 5764 5764 5765 5765 5766 5766 5766 5766 5766 5767 5767 5767 5767 5767 5767 5767 5767 5768 5769 5770 5770 5771 5771 5771 5771 5771 5771 5772 5772 5773 5773 5773 5774 5774 5774
5762 5762 5762 5761 5760 5760 5760 5760 5760 5760 5761 5761 5761 5761 5760 5760 5760 5760 5760 5761 5761 5761 5761 5761 5761 5761 5761 5761 5761 5762 5762 5762 5763 5763 5763 5764 5764 5764 5765 5765 5765 5765 5765 5765 5765 5766 5767 5767 5768 5768 5768 5768 5768 5769 5769 5770 5770 5770 5771 5771 5772 5772 5772
5760 5760 5760 5759 5758 5758 5758 5758 5758 5758 5758 5759 5759 5759 5759 5758 5758 5758 5758 5759 5759 5759 5759 5759 5759 5759 5759 5759 5759 5759 5760 5760 5760 5760 5761 5761 5761 5762 5762 5763 5763 5763 5763 5763 5763 5764 5764 5764 5765 5765 5765 5765 5765 5766 5767 5767 5767 5768 5768 5769 5769 5769 5769
5757 5757 5757 5756 5756 5756 5756 5756 5756 5756 5756 5757 5757 5757 5757 5757 5757 5757 5757 5757 5757 5757 5757 5757 5757 5757 5757 5757 5757 5757 5758 5758 5758 5758 5758 5758 5758 5759 5759 5760 5760 5761 5761 5760 5761 5761 5761 5761 5762 5762 5763 5763 5763 5763 5764 5764 5765 5765 5765 5766 5766 5766 5766
5755 5754 5754 5754 5753 5753 5753 5753 5754 5754 5754 5755 5755 5755 5755 5755 5755 5755 5755 5755 5755 5755 5755 5755 5755 5755 5755 5755 5755 5756 5756 5756 5756 5756 5756 5756 5756 5756 5757 5757 5758 5758 5758 5758 5758 5758 5758 5759 5759 5760 5760 5760 5760 5761 5761 5762 5762 5762 5762 5762 5763 5763 5763
5751 5751 5751 5751 5751 5751 5751 5751 5751 5752 5752 5753 5753 5754 5754 5754 5754 5754 5753 5753 5753 5753 5753 5753 5753 5753 5754 5754 5754 5754 5754 5755 5755 5755 5755 5755 5755 5755 5755 5755 5755 5756 5756 5756 5756 5756 5756 5757 5757 5758 5758 5758 5758 5758 5759 5759 5759 5759 5759 5759 5759 5759 5759
5747 5748 5748 5748 5748 5748 5748 5748 5748 5750 5750 5751 5751 5752 5752 5753 5752 5752 5752 5752 5751 5751 5751 5751 5751 5752 5752 5752 5752 5753 5753 5753 5753 5753 5754 5754 5754 5754 5754 5754 5754 5754 5754 5754 5754 5754 5754 5755 5755 5755 5755 5756 5756 5756 5756 5756 5756 5756 5756 5756 5756 5756 5756
5744 5744 5745 5745 5745 5746 5746 5745 5746 5747 5748 5749 5750 5750 5751 5751 5751 5751 5750 5750 5750 5750 5750 5750 5750 5750 5750 5751 5751 5751 5751 5752 5752 5752 5752 5752 5752 5752 5752 5752 5752 5752 5752 5752 5752 5752 5752 5753 5753 5753 5753 5753 5753 5753 5754 5754 5753 5753 5753 5753 5753 5754 5753
5742 5743 5743 5743 5743 5743 5743 5743 5744 5745 5746 5747 5747 5748 5748 5749 5749 5749 5748 5748 5748 5748 5748 5747 5748 5748 5748 5749 5749 5749 5750 5750 5750 5750 5750 5750 5750 5750 5750 5750 5750 5750 5751 5751 5751 5750 5750 5750 5751 5751 5751 5751 5751 5751 5751 5751 5751 5751 5750 5750 5751 5751 5751
5742 5742 5742 5741 5741 5742 5741 5741 5741 5742 5743 5744 5744 5745 5745 5746 5746 5746 5746 5746 5745 5745 5745 5745 5745 5745 5746 5747 5747 5748 5748 5748 5748 5748 5748 5748 5748 5748 5748 5748 5749 5749 5749 5749 5749 5749 5748 5748 5748 5748 5748 5749 5749 5749 5749 5749 5749 5749 5749 5748 5748 5748 5749
5741 5741 5740 5740 5740 5740 5740 5739 5739 5740 5741 5741 5741 5742 5742 5743 5743 5743 5743 5743 5743 5743 5743 5743 5743 5743 5744 5744 5745 5746 5746 5746 5746 5747 5747 5747 5747 5747 5747 5747 5747 5747 5747 5747 5747 5747 5746 5746 5746 5746 5746 5746 5746 5747 5747 5747 5747 5747 5747 5747 5747 5747 5747
5737 5738 5738 5738 5738 5738 5739 5739 5738 5738 5738 5739 5739 5740 5740 5741 5741 5741 5741 5741 5741 5742 5741 5741 5741 5741 5741 5742 5743 5743 5744 5744 5745 5745 5745 5745 5745 5745 5745 5745 5745 5745 5745 5745 5745 5745 5744 5744 5744 5744 5744 5744 5744 5744 5744 5745 5745 5745 5745 5745 5745 5745 5745
5734 5734 5735 5735 5735 5734 5735 5736 5736 5736 5736 5737 5737 5738 5738 5738 5739 5738 5738 5738 5739 5739 5740 5740 5740 5740 5740 5740 5740 5741 5741 5742 5743 5743 5743 5743 5743 5743 5743 5743 5743 5743 5743 5743 5742 5742 5742 5742 5742 5742 5742 5742 5742 5742 5742 5742 5742 5743 5743 5743 5743 5743 5743
5732 5732 5732 5732 5731 5731 5731 5731 5732 5733 5734 5735 5735 5735 5735 5736 5736 5736 5735 5735 5735 5736 5736 5737 5738 5738 5738 5738 5738 5739 5739 5739 5740 5741 5741 5741 5741 5741 5741 5741 5741 5741 5741 5741 5740 5740 5740 5740 5740 5740 5739 5739 5739 5739 5739 5740 5740 5740 5740 5741 5741 5741 5741
5730 5729 5729 5729 5729 5728 5728 5728 5729 5730 5731 5732 5733 5733 5733 5733 5733 5733 5733 5733 5732 5732 5733 5733 5734 5734 5735 5735 5736 5736 5736 5737 5737 5738 5738 5738 5738 5738 5738 5738 5738 5738 5738 5738 5738 5738 5737 5737 5737 5737 5737 5737 5737 5737 5737 5737 5737 5737 5737 5737 5738 5738 5738
5726 5726 5726 5726 5726 5725 5725 5725 5726 5727 5728 5729 5730 5731 5730 5730 5731 5730 5730 5730 5730 5730 5730 5730 5731 5731 5731 5732 5732 5732 5733 5733 5734 5736 5736 5736 5735 5735 5735 5735 5735 5735 5735 5735 5735 5735 5735 5735 5734 5734 5734 5734 5734 5734 5734 5734 5734 5734 5734 5734 5734 5734 5734
5721 5722 5723 5723 5723 5722 5722 5723 5724 5724 5724 5726 5727 5727 5727 5727 5727 5727 5726 5726 5727 5727 5727 5728 5728 5728 5728 5728 5728 5729 5729 5730 5731 5732 5733 5733 5732 5731 5732 5732 5732 5732 5733 5732 5732 5732 5732 5732 5732 5731 5731 5731 5731 5731 5731 5731 5731 5731 5731 5731 5730 5730 5730
5717 5718 5719 5720 5720 5720 5720 5721 5721 5721 5721 5722 5723 5723 5723 5723 5722 5723 5723 5723 5723 5724 5724 5725 5725 5725 5725 5724 5725 5725 5726 5726 5726 5727 5728 5728 5728 5728 5728 5728 5728 5729 5729 5729 5728 5728 5729 5729 5728 5728 5728 5728 5728 5727 5727 5727 5727 5727 5727 5727 5727 5727 5727
5713 5714 5715 5716 5717 5717 5717 5718 5717 5717 5717 5718 5719 5718 5718 5718 5719 5719 5720 5720 5720 5720 5720 5721 5721 5721 5721 5721 5721 5722 5722 5722 5722 5722 5722 5723 5723 5723 5724 5724 5724 5724 5724 5724 5723 5724 5724 5724 5724 5724 5724 5724 5724 5724 5723 5723 5723 5723 5722 5722 5722 5723 5722
5708 5709 5710 5711 5712 5713 5713 5713 5713 5712 5713 5714 5715 5714 5714 5714 5715 5716 5716 5716 5717 5716 5715 5716 5716 5717 5717 5717 5718 5718 5718 5718 5718 5718 5717 5717 5718 5718 5719 5720 5719 5718 5718 5718 5718 5718 5719 5719 5719 5719 5720 5720 5719 5719 5719 5719 5718 5718 5718 5718 5718 5718 5717
5702 5703 5704 5706 5707 5707 5708 5708 5708 5708 5708 5709 5710 5710 5710 5710 5711 5711 5712 5712 5713 5712 5711 5712 5712 5712 5713 5713 5713 5713 5712 5712 5713 5712 5712 5712 5712 5712 5713 5714 5713 5713 5713 5713 5713 5713 5713 5713 5713 5713 5714 5714 5714 5714 5714 5713 5713 5713 5713 5712 5712 5712 5712
5697 5697 5698 5699 5700 5701 5702 5702 5703 5703 5703 5704 5705 5706 5706 5706 5706 5707 5707 5707 5707 5707 5707 5708 5708 5708 5708 5708 5709 5708 5707 5707 5707 5707 5707 5707 5707 5707 5707 5708 5708 5708 5707 5707 5707 5707 5707 5707 5707 5707 5707 5707 5707 5707 5707 5707 5707 5707 5707 5706 5706 5706 5705
5690 5691 5692 5693 5693 5694 5695 5695 5696 5697 5697 5698 5699 5700 5700 5701 5701 5701 5701 5701 5701 5701 5701 5702 5702 5703 5703 5703 5703 5703 5703 5703 5702 5702 5702 5702 5702 5702 5702 5702 5702 5702 5702 5701 5701 5700 5700 5700 5700 5700 5700 5700 5700 5700 5700 5700 5700 5700 5700 5700 5700 5699 5698
5684 5684 5685 5686 5687 5688 5688 5689 5690 5691 5691 5692 5692 5693 5694 5694 5695 5695 5695 5695 5695 5695 5696 5696 5697 5697 5698 5698 5698 5698 5698 5698 5697 5697 5697 5697 5697 5697 5697 5697 5696 5696 5696 5695 5695 5694 5694 5693 5693 5693 5693 5693 5693 5693 5693 5693 5693 5693 5693 5693 5693 5692 5691
5677 5678 5678 5679 5680 5681 5682 5683 5683 5684 5685 5686 5686 5687 5688 5689 5689 5689 5689 5689 5690 5691 5691 5691 5691 5691 5691 5691 5691 5691 5691 5692 5692 5692 5692 5692 5692 5692 5692 5691 5691 5690 5690 5689 5689 5688 5688 5687 5686 5686 5686 5686 5686 5686 5686 5685 5685 5686 5686 5686 5684 5683 5683
5671 5671 5672 5673 5673 5674 5676 5677 5677 5678 5679 5680 5680 5681 5682 5683 5683 5684 5684 5684 5684 5685 5685 5685 5684 5684 5684 5684 5684 5685 5685 5685 5685 5686 5686 5686 5686 5686 5686 5685 5685 5684 5684 5683 5683 5682 5682 5681 5680 5680 5679 5679 5679 5678 5678 5678 5678 5678 5678 5677 5676 5676 5675
5665 5666 5666 5666 5667 5667 5668 5669 5670 5671 5672 5673 5674 5675 5675 5676 5676 5676 5676 5676 5677 5677 5677 5677 5677 5677 5677 5678 5678 5678 5679 5679 5679 5679 5679 5679 5679 5679 5679 5679 5679 5678 5678 5677 5676 5676 5675 5675 5674 5673 5673 5672 5672 5671 5671 5671 5671 5671 5670 5670 5669 5668 5668
5659 5660 5661 5660 5660 5660 5661 5662 5663 5664 5665 5666 5666 5667 5667 5667 5667 5667 5668 5668 5668 5669 5669 5669 5670 5670 5671 5671 5672 5672 5672 5673 5673 5673 5673 5672 5672 5672 5671 5671 5671 5671 5671 5670 5670 5669 5669 5668 5668 5667 5666 5665 5665 5664 5664 5664 5663 5663 5663 5662 5661 5661 5660
5653 5654 5654 5654 5653 5653 5653 5654 5655 5656 5657 5658 5659 5659 5659 5659 5659 5660 5660 5661 5661 5662 5663 5663 5663 5664 5664 5665 5666 5666 5666 5666 5666 5666 5666 5665 5665 5665 5664 5664 5664 5663 5663 5663 5663 5662 5662 5662 5661 5660 5659 5659 5658 5657 5657 5657 5656 5656 5655 5654 5653 5652 5651
5646 5647 5648 5647 5646 5646 5646 5646 5647 5649 5650 5651 5652 5652 5653 5653 5653 5653 5654 5655 5656 5656 5657 5657 5658 5658 5659 5659 5660 5660 5660 5660 5660 5659 5659 5658 5658 5657 5657 5657 5656 5656 5656 5656 5655 5655 5655 5654 5654 5653 5652 5652 5651 5651 5650 5650 5649 5648 5647 5646 5645 5644 5643
5639 5640 5640 5640 5640 5639 5640 5640 5641 5642 5643 5644 5645 5646 5646 5646 5646 5647 5648 5649 5650 5650 5651 5651 5651 5652 5652 5653 5653 5654 5653 5653 5653 5652 5652 5651 5651 5650 5650 5650 5649 5649 5649 5649 5648 5648 5647 5647 5646 5646 5645 5645 5644 5644 5643 5642 5642 5641 5640 5639 5637 5636 5635
5631 5632 5633 5633 5633 5633 5633 5633 5634 5635 5636 5637 5638 5639 5639 5639 5640 5640 5640 5641 5643 5644 5644 5645 5645 5646 5646 5646 5647 5647 5646 5646 5645 5645 5644 5644 5644 5644 5643 5643 5643 5643 5642 5642 5641 5641 5640 5640 5639 5639 5638 5638 5637 5636 5636 5635 5634 5633 5632 5631 5630 5628 5627
5623 5624 5625 5625 5625 5626 5626 5626 5627 5627 5628 5629 5631 5632 5632 5632 5632 5632 5633 5634 5635 5636 5637 5638 5638 5639 5639 5639 5640 5640 5639 5639 5638 5637 5637 5637 5637 5637 5637 5637 5637 5636 5636 5635 5634 5634 5634 5633 5633 5632 5632 5631 5630 5630 5629 5628 5627 5626 5624 5623 5622 5620 5619
5614 5616 5616 5617 5617 5618 5618 5619 5619 5620 5621 5622 5623 5624 5624 5625 5625 5625 5626 5627 5628 5629 5630 5630 5631 5631 5631 5632 5632 5633 5632 5631 5631 5631 5631 5630 5630 5631 5631 5631 5630 5630 5629 5628 5627 5627 5627 5626 5626 5626 5625 5624 5624 5623 5621 5620 5619 5618 5617 5615 5614 5613 5611